Погода в Бельго

Россия / Хабаровский край     50°38′59″N   137°15′27″E
темп.,
°C
ветер,
м/с
пор.,
м/с
влажн.,
%
обл.,
%
осадки,
мм/ч
давл.,
гПа
погр.,
м
21 апреля, ср
ср2101:00−3сз119598 0.0 101120
04:00−3сз22927 0.0 101328
07:000сз12730 0.0 101658
10:00+6сз24420 0.0 1017872
13:00+10з23340 0.0 10181443
16:00+12ссз13303 0.0 10171533
19:00+8в225148 0.0 101939
22:00+4ююв116413 0.0 102210
22 апреля, чт
чт2201:00+2вюв217092 0.0 102313
04:00+1вюв228194 0.0 102326
07:00+1юв23805 0.0 102495
10:00+8ююв37494 0.0 1022502
13:00+14ю69355 0.0 1021866
16:00+16ю693453 0.0 1018867
19:00+14ю5114154 0.0 1018600
22:00+9юв235961 0.0 101852
23 апреля, пт
пт2301:00+8ююв236566 0.0 101859
04:00+7юв2271100 0.0 101724
07:00+7ююв247067 0.0 1017107
10:00+15ю224332 0.0 1018360
13:00+15ссз4448100 0.0 1018878
16:00+11ссз5758100 0.0 1018750
19:00+4ссз41091100 2.6 1020607
22:00+2ссз3897100 8.6 1021473
24 апреля, сб
сб2401:000ссз3997100 4.6 1021500
04:00−1ссз4984100 5.6 1021606
07:00−3ссз38815 0.0 1021326
10:00+3ссз345340 0.0 1019719
13:00+6сз4942100 0.1 10162575
16:00+7сз594342 0.4 10142516
19:00+4сз595380 0.1 1013799
22:00−1з118154 0.1 101212
25 апреля, вс
вс2501:00−3сз118335 0.0 101222
04:00−3сз2281100 0.0 101134
07:00−1сз2672100 0.0 1011234
10:00+4с48445 0.0 10111896
13:00+5ссз5733100 0.0 10123268
16:00+5ссв593468 0.0 10122649
19:00+3ссз373699 0.0 10141030
22:00−1ссз215466 0.0 101621